Regional Weather Roundup
Issued by NWS

Home | Current Version | Previous Version | Graphics & Text | Print | Product List | Glossary On
Versions: 1 2 3 4 5 6 7 8 9 10 11 12 13 14 15 16 17 18 19 20 21 22 23 24 25 26 27 28 29 30 31 32 33 34 35 36 37 38 39 40 41 42 43 44 45 46 47 48 49 50
000
ASUS43 KIND 292109
RWRIN

WEATHER ROUNDUP FOR INDIANA
NATIONAL WEATHER SERVICE INDIANAPOLIS IN
500 PM EDT TUE JUL 29 2014

NOTE: "FAIR" INDICATES FEW OR NO CLOUDS BELOW 12,000 FEET WITH NO
SIGNIFICANT WEATHER AND/OR OBSTRUCTIONS TO VISIBILITY.

* - STATION DOES NOT REPORT WEATHER SUCH AS PRECIPITATION OR FOG.

+ - STATION NOT QUALITY CONTROLLED BY THE NATIONAL WEATHER SERVICE.
    USE DATA WITH CAUTION...ESPECIALLY DEWPOINT AND RELATIVE
    HUMIDITY OBSERVATIONS.

INZ001>003-010>013-019-020-292200-
NORTHWEST INDIANA

CITY           SKY/WX    TMP DP  RH WIND       PRES   REMARKS
GARY /AIRPORT/ PTSUNNY   72  59  64 VRB7      30.03S
KNOX *+        SUNNY     76  52  43 N12G20    30.01S
LA PORTE +     SUNNY     74  53  48 NW9       30.03S
MICHIGAN CITY+ SUNNY     72  54  53 N7        30.03F
MONTICELLO +   CLOUDY    73  58  61 NW8       30.02S
RENSSELAER +   LGT RAIN  70  59  68 W3        30.03S
VALPARAISO     MOSUNNY   77  55  46 VRB5      30.02F

$$

LMZ046-743>745-292200-
SOUTHERN LAKE MICHIGAN

STATION/POSITION TIME  TEMP WIND        PRES
                       AIR  DIR/SP/G
                 (UTC) (F)  (DEG/KT/KT) (MB)
BURNS HARBOR     2100   69   60/  9/ 10 1017.3S
MICHIGAN CITY    2100   65   30/  7/  8   N/A

$$

INZ004-005-014>016-021>024-292200-
NORTH CENTRAL INDIANA

CITY           SKY/WX    TMP DP  RH WIND       PRES   REMARKS
ELKHART        SUNNY     75  54  46 NW12G18   30.02S
GOSHEN         SUNNY     73  55  53 NW13G21   30.00S
LOGANSPORT +   PTSUNNY   68  61  77 S3        30.03S
PERU/GRISSOM   TSTM      67  65  93 W17       30.03S FOG
ROCHESTER +    MOSUNNY   77  57  50 W6        30.01F
SOUTH BEND     SUNNY     74  54  49 W15       30.03S
WARSAW +       MOSUNNY   75  54  46 NW14G22   30.01S

$$

INZ006>009-017-018-025>027-292200-
NORTHEAST INDIANA

CITY           SKY/WX    TMP DP  RH WIND       PRES   REMARKS
ANGOLA *+      PTSUNNY   70  61  73 CALM      30.00S
AUBURN +       PTSUNNY   72  54  53 W12G17    30.01S
FORT WAYNE     TSTM      72  55  55 W12       30.01F
HUNTINGTON +   CLOUDY    70  55  59 W9G17     30.02R

$$

INZ028-029-035-036-043>045-051>053-292200-
WEST CENTRAL INDIANA

CITY           SKY/WX    TMP DP  RH WIND       PRES   REMARKS
GREENCASTLE +  PTSUNNY   68  59  73 CALM      30.08S
LAFAYETTE      SUNNY     77  56  48 W12G20    30.02F
TERRE HAUTE    CLOUDY    75  57  53 NW6       30.07F

$$

INZ030>032-037>040-046>048-054>057-064-065-292200-
CENTRAL INDIANA

CITY           SKY/WX    TMP DP  RH WIND       PRES   REMARKS
CP ATTERBURY + PTSUNNY   75  55  50 W7        30.07F
COLUMBUS       MOSUNNY   73  55  53 W6        30.07F
GREENWOOD *+   PTSUNNY   75  61  60 W8        30.06F
INDIANAPOLIS   LGT RAIN  70  59  68 W13       30.06F
-EAGLE CREEK   LGT RAIN  70  56  61 W17       30.05S
KOKOMO *+      MOSUNNY   70  59  68 SW5       30.04S
MARION +       CLOUDY    69  57  66 W10G24    30.05R
MT COMFORT *+  SUNNY     75  57  53 NW10      30.05F
SHELBYVILLE    MOSUNNY   74  56  53 S9        30.05F
ZIONSVILLE +   PTSUNNY   74  55  50 W9        30.06S

$$

INZ033-034-041-042-049-050-058-059-292200-
EAST CENTRAL INDIANA

CITY           SKY/WX    TMP DP  RH WIND       PRES   REMARKS
MUNCIE         PTSUNNY   74  53  48 VRB3      30.03F

$$

INZ060-061-067>069-081>083-085>088-292200-
SOUTHWEST INDIANA

CITY           SKY/WX    TMP DP  RH WIND       PRES   REMARKS
EVANSVILLE     MOSUNNY   79  53  40 NW10      30.10S
WASHINGTON +   CLOUDY    73  60  61 NW8       30.08S

$$

INZ062-063-066-070>080-084-089>092-292200-
SOUTH CENTRAL AND SOUTHEAST INDIANA

CITY           SKY/WX    TMP DP  RH WIND       PRES   REMARKS
BEDFORD +      PTSUNNY   73  55  53 N3        30.08F
BLOOMINGTON    PTSUNNY   73  57  57 CALM      30.08F

$$




USA.gov is the U.S. government's official web portal to all federal, state and local government web resources and services.